When you browse on this site, cookies collect data to enhance your experience and personalize the content and advertising you see.
Visit our Privacy Policy to learn more. By continuing to use the site, you agree to this use of cookies and data.
  • In Switzerland
  • List of Countries
  • For 7 days
  • Water Temperature
  • Satellite Maps
  • Weather Map
  • Weather Widgets
  • user-avatar
    Login

    Hourly Weather Mesznary

    Today, 25 May, Saturday

    Time Temperature Precipitation Wind Pressure Humidity
    00:00 +12°C° 0 mm 1 mps 745 mmHg 68%
    01:00 +12°C° 0 mm 2 mps 745 mmHg 69%
    02:00 +10°C° 0 mm 2 mps 745 mmHg 70%
    03:00 +10°C° 0 mm 2 mps 745 mmHg 71%
    04:00 +10°C° 0 mm 2 mps 745 mmHg 73%
    05:00 +11°C° 0 mm 3 mps 745 mmHg 73%
    06:00 +13°C° 0 mm 3 mps 745 mmHg 73%
    07:00 +14°C° 0 mm 3 mps 745 mmHg 73%
    08:00 +17°C° 0.1 mm 3 mps 745 mmHg 70%
    09:00 +19°C° 0.1 mm 3 mps 745 mmHg 67%
    10:00 +20°C° 0.1 mm 4 mps 746 mmHg 64%
    11:00 +21°C° 0.4 mm 4 mps 745 mmHg 64%
    12:00 +21°C° 0.4 mm 4 mps 745 mmHg 63%
    13:00 +21°C° 0.4 mm 4 mps 745 mmHg 62%
    14:00 +21°C° 0.4 mm 4 mps 745 mmHg 63%
    15:00 +21°C° 0.4 mm 4 mps 745 mmHg 64%
    16:00 +21°C° 0.4 mm 4 mps 745 mmHg 65%
    17:00 +20°C° 0.1 mm 3 mps 745 mmHg 69%
    18:00 +19°C° 0.1 mm 2 mps 745 mmHg 74%
    19:00 +17°C° 0.1 mm 2 mps 745 mmHg 78%
    20:00 +16°C° 0 mm 2 mps 746 mmHg 81%
    21:00 +15°C° 0 mm 2 mps 746 mmHg 84%
    22:00 +14°C° 0 mm 2 mps 746 mmHg 87%
    23:00 +13°C° 0 mm 2 mps 746 mmHg 89%

    Tomorrow, 26 May, Sunday

    Time Temperature Precipitation Wind Pressure Humidity
    00:00 +12°C° 0 mm 2 mps 746 mmHg 90%
    01:00 +12°C° 0 mm 2 mps 747 mmHg 92%
    02:00 +10°C° 0 mm 2 mps 746 mmHg 92%
    03:00 +10°C° 0 mm 2 mps 746 mmHg 93%
    04:00 +10°C° 0 mm 1 mps 746 mmHg 93%
    05:00 +10°C° 0 mm 2 mps 746 mmHg 89%
    06:00 +13°C° 0 mm 2 mps 746 mmHg 84%
    07:00 +14°C° 0 mm 2 mps 746 mmHg 80%
    08:00 +16°C° 0 mm 3 mps 746 mmHg 75%
    09:00 +17°C° 0 mm 3 mps 746 mmHg 69%
    10:00 +18°C° 0 mm 4 mps 746 mmHg 64%
    11:00 +19°C° 0 mm 4 mps 746 mmHg 61%
    12:00 +20°C° 0 mm 5 mps 745 mmHg 59%
    13:00 +21°C° 0 mm 5 mps 745 mmHg 57%
    14:00 +21°C° 0 mm 5 mps 745 mmHg 57%
    15:00 +21°C° 0 mm 5 mps 744 mmHg 57%
    16:00 +22°C° 0 mm 5 mps 744 mmHg 57%
    17:00 +21°C° 0 mm 4 mps 744 mmHg 63%
    18:00 +20°C° 0 mm 3 mps 744 mmHg 68%
    19:00 +19°C° 0 mm 2 mps 744 mmHg 74%
    20:00 +18°C° 0 mm 2 mps 744 mmHg 76%
    21:00 +17°C° 0 mm 2 mps 745 mmHg 78%
    22:00 +14°C° 0 mm 3 mps 745 mmHg 80%
    23:00 +14°C° 0 mm 3 mps 745 mmHg 82%

    Day after tomorrow, 27 May, Monday

    Time Temperature Precipitation Wind Pressure Humidity
    00:00 +14°C° 0 mm 3 mps 744 mmHg 84%
    01:00 +13°C° 0 mm 3 mps 744 mmHg 86%
    02:00 +13°C° 0 mm 3 mps 744 mmHg 88%
    03:00 +13°C° 0 mm 3 mps 744 mmHg 90%
    04:00 +12°C° 0 mm 3 mps 743 mmHg 92%
    05:00 +14°C° 0 mm 3 mps 743 mmHg 86%
    06:00 +17°C° 0 mm 4 mps 743 mmHg 80%
    07:00 +18°C° 0 mm 4 mps 743 mmHg 74%
    08:00 +20°C° 0 mm 5 mps 743 mmHg 68%
    09:00 +21°C° 0 mm 5 mps 743 mmHg 62%
    10:00 +23°C° 0 mm 6 mps 743 mmHg 56%
    11:00 +23°C° 0 mm 6 mps 743 mmHg 54%
    12:00 +24°C° 0 mm 6 mps 742 mmHg 52%
    13:00 +26°C° 0 mm 5 mps 742 mmHg 50%
    14:00 +26°C° 0 mm 5 mps 742 mmHg 51%
    15:00 +26°C° 0 mm 5 mps 742 mmHg 53%
    16:00 +26°C° 0 mm 5 mps 742 mmHg 54%
    17:00 +23°C° 0.1 mm 4 mps 742 mmHg 63%
    18:00 +21°C° 0.1 mm 3 mps 742 mmHg 71%
    19:00 +20°C° 0.1 mm 2 mps 742 mmHg 80%
    20:00 +19°C° 0 mm 2 mps 742 mmHg 84%
    21:00 +18°C° 0 mm 1 mps 742 mmHg 87%
    22:00 +16°C° 0 mm 1 mps 742 mmHg 91%
    23:00 +16°C° 0 mm 1 mps 742 mmHg 92%

    28 May, Tuesday

    Time Temperature Precipitation Wind Pressure Humidity
    00:00 +16°C° 0 mm 1 mps 742 mmHg 93%
    01:00 +15°C° 0 mm 2 mps 742 mmHg 95%
    02:00 +15°C° 0.3 mm 2 mps 741 mmHg 95%
    03:00 +15°C° 0.3 mm 2 mps 741 mmHg 96%
    04:00 +15°C° 0.3 mm 2 mps 741 mmHg 96%
    05:00 +15°C° 2.4 mm 2 mps 741 mmHg 96%
    06:00 +14°C° 2.4 mm 3 mps 741 mmHg 96%
    07:00 +14°C° 2.4 mm 3 mps 741 mmHg 97%
    08:00 +16°C° 1.8 mm 3 mps 741 mmHg 96%
    09:00 +16°C° 1.8 mm 3 mps 741 mmHg 96%
    10:00 +16°C° 1.8 mm 2 mps 741 mmHg 95%
    11:00 +17°C° 0.3 mm 3 mps 741 mmHg 92%
    12:00 +18°C° 0.3 mm 3 mps 740 mmHg 89%
    13:00 +19°C° 0.3 mm 3 mps 740 mmHg 86%
    14:00 +19°C° 0.6 mm 3 mps 740 mmHg 87%
    15:00 +18°C° 0.6 mm 4 mps 740 mmHg 89%
    16:00 +17°C° 0.6 mm 5 mps 740 mmHg 91%
    17:00 +16°C° 0.5 mm 5 mps 740 mmHg 92%
    18:00 +15°C° 0.5 mm 6 mps 740 mmHg 94%
    19:00 +14°C° 0.5 mm 6 mps 741 mmHg 95%
    20:00 +13°C° 0.2 mm 6 mps 741 mmHg 94%
    21:00 +13°C° 0.2 mm 6 mps 741 mmHg 94%
    22:00 +11°C° 0.2 mm 6 mps 742 mmHg 94%
    23:00 +11°C° 0.7 mm 7 mps 742 mmHg 94%

    29 May, Wednesday

    Time Temperature Precipitation Wind Pressure Humidity
    00:00 +11°C° 0.7 mm 7 mps 743 mmHg 94%
    01:00 +11°C° 0.7 mm 7 mps 743 mmHg 94%
    02:00 +10°C° 1.1 mm 7 mps 744 mmHg 94%
    03:00 +10°C° 1.1 mm 6 mps 744 mmHg 94%
    04:00 +9°C° 1.1 mm 6 mps 745 mmHg 94%
    05:00 +9°C° 0.1 mm 6 mps 746 mmHg 91%
    06:00 +9°C° 0.1 mm 6 mps 746 mmHg 89%
    07:00 +8°C° 0.1 mm 6 mps 747 mmHg 87%
    08:00 +10°C° 0 mm 6 mps 748 mmHg 81%
    09:00 +11°C° 0 mm 6 mps 748 mmHg 75%
    10:00 +13°C° 0 mm 6 mps 749 mmHg 69%
    11:00 +14°C° 0 mm 6 mps 749 mmHg 68%
    12:00 +14°C° 0 mm 5 mps 749 mmHg 67%
    13:00 +14°C° 0 mm 5 mps 750 mmHg 66%
    14:00 +14°C° 0 mm 5 mps 750 mmHg 66%
    15:00 +14°C° 0 mm 5 mps 750 mmHg 66%
    16:00 +14°C° 0 mm 5 mps 751 mmHg 66%
    17:00 +14°C° 0 mm 4 mps 751 mmHg 69%
    18:00 +13°C° 0 mm 4 mps 751 mmHg 73%
    19:00 +12°C° 0 mm 3 mps 752 mmHg 77%
    20:00 +11°C° 0 mm 3 mps 752 mmHg 78%
    21:00 +10°C° 0 mm 2 mps 753 mmHg 80%
    22:00 +9°C° 0 mm 2 mps 753 mmHg 81%
    23:00 +8°C° 0 mm 2 mps 754 mmHg 81%

    30 May, Thursday

    Time Temperature Precipitation Wind Pressure Humidity
    00:00 +8°C° 0 mm 2 mps 754 mmHg 81%
    01:00 +7°C° 0 mm 2 mps 754 mmHg 82%
    02:00 +7°C° 0 mm 2 mps 754 mmHg 82%
    03:00 +6°C° 0 mm 2 mps 755 mmHg 82%
    04:00 +6°C° 0 mm 2 mps 755 mmHg 82%
    05:00 +7°C° 0 mm 2 mps 755 mmHg 78%
    06:00 +9°C° 0 mm 2 mps 755 mmHg 74%
    07:00 +12°C° 0 mm 1 mps 755 mmHg 71%
    08:00 +13°C° 0 mm 1 mps 755 mmHg 65%
    09:00 +15°C° 0 mm 1 mps 754 mmHg 60%
    10:00 +16°C° 0 mm 1 mps 754 mmHg 54%
    11:00 +18°C° 0 mm 1 mps 754 mmHg 51%
    12:00 +17°C° 0 mm 0 mps 753 mmHg 49%
    13:00 +18°C° 0 mm 0 mps 753 mmHg 46%
    14:00 +20°C° 0 mm 1 mps 752 mmHg 46%
    15:00 +20°C° 0 mm 1 mps 752 mmHg 45%
    16:00 +20°C° 0 mm 1 mps 752 mmHg 45%
    17:00 +19°C° 0 mm 1 mps 752 mmHg 51%
    18:00 +18°C° 0 mm 1 mps 751 mmHg 57%
    19:00 +16°C° 0 mm 1 mps 751 mmHg 63%
    20:00 +15°C° 0 mm 1 mps 751 mmHg 63%
    21:00 +14°C° 0 mm 1 mps 751 mmHg 64%
    22:00 +13°C° 0 mm 1 mps 751 mmHg 64%
    23:00 +12°C° 0 mm 2 mps 751 mmHg 66%
    Show more